[[{"header":{"parameterUnit":"m.s-1","parameterCategory":2,"la1":30.2992,"la2":30.254,"lo1":-89.0895,"lo2":-89.0443,"dy":0.0025,"dx":0.0025,"nx":19,"ny":19,"refTime":"2026-03-08T03:00:00:Z","depth":"0","parameterNumber":2,"parameterNumberName":"U-component_of_CURRENTS"},"data":[0,0,0,0.153,0.1529,0.1478,0.1477,0.1396,0.1396,0,0,0,0,0,0,0,0,0,0,0,0.1549,0.1549,0.153,0.1529,0.1478,0.1477,0.1397,0.1396,0,0,0,0,0,0,0,0,0,0,0,0.155,0.1549,0.1549,0.1529,0.1478,0.1477,0.1397,0.1438,0,0,0,0,0,0,0,0,0,0,0.149,0.1523,0.1549,0.1549,0.1529,0.1478,0.1477,0.144,0.1436,0.1417,0,0.1412,0,0.1403,0.139,0.139,0,0,0,0.1525,0.1527,0.1502,0.1549,0.1528,0.1478,0.15,0.1438,0.1432,0.1411,0.1411,0.1408,0.1401,0.139,0.1389,0.1326,0.1326,0,0,0.1528,0.1549,0.1506,0.1499,0.1519,0.1501,0.1498,0.1435,0.1437,0.1411,0.1406,0.14,0.1389,0.1389,0.1326,0.1326,0,0,0,0.1539,0.1551,0.1528,0.1502,0.1494,0.15,0.1496,0.144,0.1429,0.1405,0.1399,0.1389,0.1388,0.1326,0.1326,0.1316,0,0,0,0.154,0.1557,0.1529,0.1542,0.1495,0.1472,0.1503,0.1434,0.1426,0.1399,0.1389,0.1387,0.1326,0.1326,0.1317,0.1313,0,0,0,0.1551,0.1559,0.1552,0.1543,0.1522,0.1472,0.1458,0.1432,0.1422,0.139,0.1387,0.1326,0.1326,0.1317,0.1314,0.1304,0,0,0,0.1576,0.1564,0.1552,0.1534,0.1522,0.1472,0.1458,0.1423,0.1396,0.1388,0.1326,0.1326,0.1317,0.1315,0.1305,0.1289,0.1286,0,0,0.1571,0.1565,0.155,0.1537,0.1492,0.1479,0.1431,0.1393,0.1386,0.1345,0.1344,0.1317,0.1314,0.1304,0.1276,0.1273,0,0,0,0.1554,0.1542,0.1526,0.1499,0.1464,0.1428,0.1394,0.138,0.1348,0.137,0.1315,0.1313,0.1307,0.1299,0.1297,0.1306,0.1325,0.1325,0.1325,0.1556,0.153,0.1499,0.1461,0.1433,0.1387,0.1359,0.1333,0.1328,0.132,0.1304,0.1288,0.1279,0.1277,0.1287,0.1302,0.1302,0.1302,0.1302,0.1527,0.149,0.1473,0.1435,0.1397,0.1358,0.1314,0.1307,0.1279,0.129,0.1284,0.1288,0.1274,0.1285,0.1301,0.1301,0.1302,0.1302,0.1302,0.15,0.1477,0.1466,0.1414,0.1372,0.1334,0.1283,0.1271,0.1273,0.1264,0.126,0.126,0.1271,0.1267,0.1267,0.1267,0.1267,0.1267,0.1266,0.1465,0.145,0.1418,0.1385,0.1352,0.1311,0.1268,0.1247,0.1242,0.1248,0.1248,0.1265,0.1277,0.128,0.1266,0.1266,0.1266,0.1266,0.1266,0.1388,0.1402,0.1353,0.1328,0.1275,0.1238,0.1223,0.1202,0.12,0.1202,0.1231,0.1234,0.1236,0.1238,0.1239,0.1215,0.1215,0.1215,0.1215,0.1338,0.1342,0.1274,0.1232,0.1195,0.1191,0.1146,0.115,0.1191,0.122,0.1215,0.1222,0.1224,0.1225,0.1228,0.123,0.1203,0.1203,0.1203,0.1275,0.1274,0.1205,0.1186,0.1153,0.1146,0.1096,0.1059,0.1162,0.1205,0.1231,0.1231,0.1244,0.1246,0.1252,0.1254,0.1259,0,0]},{"header":{"parameterUnit":"m.s-1","parameterCategory":2,"la1":30.2992,"la2":30.254,"lo1":-89.0895,"lo2":-89.0443,"dy":0.0025,"dx":0.0025,"nx":19,"ny":19,"refTime":"2026-03-08T03:00:00:Z","depth":"0","parameterNumber":3,"parameterNumberName":"V-component_of_CURRENTS"},"data":[0,0,0,-0.2142,-0.2142,-0.2115,-0.2114,-0.1982,-0.1981,0,0,0,0,0,0,0,0,0,0,0,-0.2155,-0.2156,-0.2142,-0.2142,-0.2115,-0.2114,-0.1983,-0.1981,0,0,0,0,0,0,0,0,0,0,0,-0.2155,-0.2156,-0.2156,-0.2142,-0.2115,-0.2114,-0.1983,-0.2024,0,0,0,0,0,0,0,0,0,0,-0.2061,-0.2103,-0.2156,-0.2156,-0.2142,-0.2115,-0.2114,-0.2027,-0.2021,-0.1972,0,-0.1985,0,-0.1982,-0.1972,-0.1971,0,0,0,-0.2126,-0.2109,-0.2092,-0.2156,-0.2142,-0.2115,-0.2123,-0.2024,-0.2018,-0.1964,-0.1983,-0.1978,-0.198,-0.1971,-0.197,-0.1884,-0.1884,0,0,-0.2128,-0.215,-0.2097,-0.2089,-0.2154,-0.2124,-0.2122,-0.2021,-0.2026,-0.1982,-0.1976,-0.1978,-0.197,-0.1969,-0.1884,-0.1884,0,0,0,-0.2143,-0.2152,-0.214,-0.2094,-0.2099,-0.2123,-0.2121,-0.203,-0.2025,-0.1974,-0.1976,-0.1969,-0.1967,-0.1883,-0.1884,-0.1924,0,0,0,-0.2143,-0.2161,-0.2141,-0.2154,-0.2102,-0.208,-0.2132,-0.2032,-0.2021,-0.1977,-0.1969,-0.1966,-0.1883,-0.1884,-0.1923,-0.1923,0,0,0,-0.2153,-0.2162,-0.2163,-0.2155,-0.2149,-0.2082,-0.2071,-0.203,-0.2022,-0.1971,-0.1965,-0.1883,-0.1883,-0.1922,-0.1921,-0.1877,0,0,0,-0.2168,-0.2198,-0.2165,-0.2188,-0.215,-0.2129,-0.2072,-0.2049,-0.2013,-0.1968,-0.1883,-0.1884,-0.1921,-0.192,-0.1876,-0.1827,-0.1823,0,0,-0.2214,-0.2204,-0.2214,-0.2183,-0.2178,-0.2131,-0.2109,-0.204,-0.1997,-0.1906,-0.1904,-0.1923,-0.1921,-0.1877,-0.1845,-0.1841,0,0,0,-0.2232,-0.2239,-0.2232,-0.2219,-0.2188,-0.2143,-0.2087,-0.2048,-0.1983,-0.198,-0.1918,-0.1915,-0.1885,-0.1856,-0.1852,-0.1728,-0.1885,-0.1885,-0.1885,-0.2319,-0.2282,-0.2284,-0.2236,-0.2212,-0.2145,-0.2101,-0.2032,-0.1998,-0.1982,-0.1946,-0.1935,-0.1906,-0.1902,-0.1776,-0.1951,-0.1951,-0.1951,-0.1952,-0.2368,-0.2353,-0.23,-0.2287,-0.2221,-0.2184,-0.2084,-0.2054,-0.197,-0.1968,-0.1938,-0.1898,-0.1901,-0.1767,-0.1954,-0.1954,-0.1953,-0.1953,-0.1953,-0.2409,-0.239,-0.2375,-0.232,-0.2266,-0.2191,-0.2094,-0.204,-0.199,-0.1969,-0.1892,-0.1891,-0.177,-0.1948,-0.1948,-0.1948,-0.1947,-0.1947,-0.1947,-0.2445,-0.2422,-0.2392,-0.2344,-0.2295,-0.222,-0.2095,-0.2023,-0.1939,-0.1911,-0.1909,-0.1747,-0.1932,-0.1928,-0.1945,-0.1945,-0.1945,-0.1946,-0.1946,-0.2461,-0.2444,-0.24,-0.2359,-0.2242,-0.2163,-0.208,-0.1935,-0.1871,-0.183,-0.1669,-0.1859,-0.1824,-0.1826,-0.1819,-0.1806,-0.1806,-0.1806,-0.1806,-0.2459,-0.2453,-0.2365,-0.2276,-0.2191,-0.2108,-0.1963,-0.185,-0.1685,-0.1588,-0.1542,-0.1535,-0.1546,-0.1494,-0.1504,-0.1489,-0.1393,-0.1392,-0.1391,-0.2439,-0.2421,-0.2348,-0.225,-0.2144,-0.2045,-0.1885,-0.1683,-0.148,-0.1363,-0.1376,-0.1394,-0.1375,-0.1403,-0.1319,-0.1342,-0.1318,0,0]}],[{"header":{"parameterUnit":"m.s-1","parameterCategory":2,"la1":30.2992,"la2":30.254,"lo1":-89.0895,"lo2":-89.0443,"dy":0.0025,"dx":0.0025,"nx":19,"ny":19,"refTime":"2026-03-08T03:00:00:Z","depth":"2","parameterNumber":2,"parameterNumberName":"U-component_of_CURRENTS"},"data":[0,0,0,0.0542,0.0543,0.0572,0.0572,0.0609,0.0609,0,0,0,0,0,0,0,0,0,0,0,0.0538,0.0538,0.0542,0.0544,0.0572,0.0572,0.0609,0.0609,0,0,0,0,0,0,0,0,0,0,0,0.0537,0.0538,0.0539,0.0544,0.0572,0.0572,0.0609,0.0584,0,0,0,0,0,0,0,0,0,0,0.0554,0.056,0.0538,0.0539,0.0544,0.0572,0.0572,0.0582,0.0585,0.06,0,0.0621,0,0.0621,0.0613,0.0613,0,0,0,0.0529,0.0558,0.0563,0.0539,0.0544,0.0573,0.0555,0.0584,0.0587,0.0604,0.0622,0.0623,0.0622,0.0614,0.0614,0.0692,0.0692,0,0,0.0528,0.0541,0.0561,0.0566,0.0574,0.0555,0.0557,0.0586,0.0601,0.0622,0.0624,0.0623,0.0614,0.0614,0.0691,0.0692,0,0,0,0.0533,0.0541,0.0545,0.0565,0.0573,0.0556,0.0558,0.0599,0.0601,0.0624,0.0623,0.0614,0.0615,0.0691,0.0691,0.0671,0,0,0,0.0531,0.0544,0.0544,0.0552,0.0573,0.0588,0.0571,0.0598,0.0602,0.0623,0.0614,0.0615,0.069,0.0691,0.067,0.065,0,0,0,0.0532,0.0544,0.0553,0.0553,0.0571,0.0587,0.059,0.0599,0.0602,0.0613,0.0616,0.069,0.0691,0.067,0.065,0.0656,0,0,0,0.0535,0.0581,0.0554,0.0613,0.0571,0.0617,0.059,0.0616,0.0631,0.0615,0.069,0.0691,0.067,0.0651,0.0656,0.0664,0.0665,0,0,0.0593,0.0589,0.0623,0.06,0.0652,0.061,0.0646,0.0644,0.065,0.0677,0.0679,0.067,0.065,0.0656,0.0724,0.0723,0,0,0,0.0642,0.066,0.0678,0.0699,0.0715,0.0684,0.0686,0.0681,0.0682,0.0666,0.0697,0.0686,0.069,0.0696,0.0696,0.0696,0.0696,0.0696,0.0696,0.0699,0.0705,0.0743,0.0743,0.0757,0.0739,0.0724,0.0712,0.0722,0.0719,0.0689,0.0706,0.0714,0.0714,0.0719,0.0719,0.0719,0.0719,0.0719,0.0748,0.0743,0.0746,0.0767,0.0734,0.0731,0.0725,0.0712,0.0712,0.071,0.0715,0.0699,0.0712,0.0718,0.0718,0.0718,0.0718,0.0718,0.0718,0.0743,0.0731,0.074,0.0728,0.0696,0.0675,0.0642,0.0652,0.0682,0.0683,0.0696,0.0697,0.0676,0.0683,0.0683,0.0683,0.0683,0.0683,0.0683,0.0697,0.0711,0.0679,0.0675,0.0635,0.0592,0.0585,0.06,0.0645,0.0675,0.0675,0.0694,0.0695,0.0675,0.0682,0.0682,0.0682,0.0682,0.0682,0.0646,0.0636,0.0599,0.0565,0.0511,0.0488,0.0505,0.0558,0.0596,0.0636,0.0684,0.0684,0.0691,0.0692,0.0673,0.0678,0.0678,0.0678,0.0678,0.0575,0.0583,0.0492,0.0438,0.0405,0.0423,0.041,0.0448,0.0554,0.0587,0.059,0.0592,0.0596,0.0596,0.06,0.0579,0.056,0.0559,0.0559,0.0502,0.0489,0.04,0.037,0.0345,0.0362,0.0348,0.0228,0.0293,0.0549,0.0518,0.0681,0.0695,0.0695,0.0707,0.0708,0.0679,0,0]},{"header":{"parameterUnit":"m.s-1","parameterCategory":2,"la1":30.2992,"la2":30.254,"lo1":-89.0895,"lo2":-89.0443,"dy":0.0025,"dx":0.0025,"nx":19,"ny":19,"refTime":"2026-03-08T03:00:00:Z","depth":"2","parameterNumber":3,"parameterNumberName":"V-component_of_CURRENTS"},"data":[0,0,0,0.0633,0.0633,0.0575,0.0575,0.0547,0.0547,0,0,0,0,0,0,0,0,0,0,0,0.0643,0.0643,0.0634,0.0633,0.0576,0.0575,0.0547,0.0547,0,0,0,0,0,0,0,0,0,0,0,0.0643,0.0643,0.0642,0.0632,0.0576,0.0575,0.0547,0.0576,0,0,0,0,0,0,0,0,0,0,0.0624,0.0614,0.0643,0.0642,0.0632,0.0576,0.0575,0.0576,0.0574,0.059,0,0.0579,0,0.0574,0.0547,0.0547,0,0,0,0.062,0.0616,0.0622,0.0642,0.0632,0.0576,0.0598,0.0575,0.0572,0.0587,0.0579,0.0577,0.0574,0.0547,0.0547,0.0575,0.0576,0,0,0.0623,0.0613,0.0624,0.062,0.0616,0.06,0.0596,0.0572,0.0558,0.0578,0.0577,0.0573,0.0547,0.0547,0.0575,0.0575,0,0,0,0.0641,0.0615,0.062,0.0622,0.0614,0.0598,0.0594,0.0558,0.0565,0.0576,0.0573,0.0547,0.0547,0.0575,0.0575,0.0566,0,0,0,0.0642,0.0627,0.0621,0.0612,0.0614,0.0576,0.058,0.0566,0.0564,0.0573,0.0547,0.0547,0.0575,0.0575,0.0565,0.057,0,0,0,0.0646,0.0626,0.0624,0.0612,0.0596,0.0576,0.058,0.0565,0.0563,0.0547,0.0547,0.0574,0.0575,0.0565,0.0569,0.0577,0,0,0,0.0632,0.0643,0.0623,0.0636,0.0597,0.061,0.058,0.0556,0.054,0.0547,0.0575,0.0575,0.0565,0.0569,0.0576,0.0567,0.0568,0,0,0.0651,0.0644,0.0658,0.0641,0.0667,0.0617,0.0627,0.0577,0.0561,0.0583,0.0583,0.0566,0.0569,0.0576,0.0604,0.0604,0,0,0,0.067,0.0678,0.0683,0.0685,0.0683,0.066,0.0619,0.0607,0.0578,0.0558,0.0582,0.0585,0.0589,0.0583,0.0584,0.0578,0.0578,0.0578,0.0578,0.0665,0.0686,0.0706,0.0723,0.0716,0.0684,0.0669,0.0645,0.0615,0.0598,0.0588,0.0605,0.0599,0.0599,0.0597,0.0597,0.0597,0.0597,0.0597,0.0714,0.0737,0.0725,0.0736,0.0709,0.0687,0.0691,0.0657,0.0646,0.0616,0.062,0.0588,0.0598,0.0597,0.0597,0.0597,0.0597,0.0597,0.0597,0.0735,0.0751,0.0722,0.0715,0.0674,0.0647,0.0647,0.0644,0.0631,0.0633,0.0607,0.0606,0.0595,0.0608,0.0608,0.0608,0.0608,0.0608,0.0608,0.0759,0.0753,0.0717,0.0695,0.0647,0.0603,0.0599,0.0613,0.0617,0.0608,0.0608,0.0609,0.0608,0.0597,0.0609,0.0609,0.0609,0.0609,0.0609,0.0819,0.0768,0.0756,0.0704,0.0619,0.0588,0.0583,0.059,0.0605,0.062,0.0609,0.0609,0.0614,0.0613,0.0603,0.0616,0.0616,0.0616,0.0616,0.0828,0.082,0.0758,0.0709,0.0634,0.0599,0.0573,0.0643,0.0687,0.0738,0.0734,0.0734,0.0729,0.0742,0.0738,0.0731,0.0778,0.0778,0.0779,0.0845,0.0845,0.0788,0.0733,0.0642,0.0591,0.0564,0.0766,0.0944,0.0791,0.0827,0.0614,0.0599,0.0599,0.0604,0.0604,0.0586,0,0]}],[{"header":{"parameterUnit":"m.s-1","parameterCategory":2,"la1":30.2992,"la2":30.254,"lo1":-89.0895,"lo2":-89.0443,"dy":0.0025,"dx":0.0025,"nx":19,"ny":19,"refTime":"2026-03-08T03:00:00:Z","depth":"4","parameterNumber":2,"parameterNumberName":"U-component_of_CURRENTS"},"data":[0,0,0,-0.0163,-0.0163,-0.0172,-0.0173,-0.0209,-0.0209,0,0,0,0,0,0,0,0,0,0,0,-0.0159,-0.0159,-0.0163,-0.0163,-0.0172,-0.0173,-0.0208,-0.0209,0,0,0,0,0,0,0,0,0,0,0,-0.0159,-0.0159,-0.0159,-0.0163,-0.0172,-0.0173,-0.0208,-0.0197,0,0,0,0,0,0,0,0,0,0,-0.0185,-0.0176,-0.0159,-0.0159,-0.0163,-0.0172,-0.0173,-0.0196,-0.0198,-0.0209,0,-0.0205,0,-0.0205,-0.0211,-0.0211,0,0,0,-0.0169,-0.0175,-0.0176,-0.0159,-0.0163,-0.0172,-0.017,-0.0197,-0.0199,-0.0211,-0.0205,-0.0207,-0.0206,-0.0211,-0.0212,-0.0175,-0.0175,0,0,-0.0169,-0.0165,-0.0175,-0.0177,-0.0159,-0.017,-0.017,-0.0198,-0.0198,-0.0206,-0.0207,-0.0207,-0.0212,-0.0212,-0.0176,-0.0175,0,0,0,-0.0163,-0.0164,-0.0165,-0.0176,-0.0174,-0.017,-0.017,-0.0197,-0.0196,-0.0208,-0.0207,-0.0212,-0.0212,-0.0177,-0.0176,-0.0068,0,0,0,-0.0163,-0.016,-0.0164,-0.0163,-0.0173,-0.0182,-0.0169,-0.0194,-0.0197,-0.0207,-0.0212,-0.0213,-0.0177,-0.0176,-0.0073,-0.0063,0,0,0,-0.016,-0.016,-0.0159,-0.0162,-0.0163,-0.0182,-0.0183,-0.0195,-0.0197,-0.0211,-0.0213,-0.0178,-0.0176,-0.0077,-0.0069,-0.0158,0,0,0,-0.016,-0.0148,-0.0159,-0.0143,-0.0163,-0.0141,-0.0183,-0.0168,-0.0173,-0.0212,-0.0177,-0.0176,-0.0078,-0.0073,-0.0159,-0.0186,0,0,0,-0.0144,-0.0147,-0.0135,-0.0144,-0.0108,-0.0141,-0.0099,-0.0122,-0.0155,-0.0173,-0.0172,-0.0071,-0.007,-0.0158,-0.0093,0,0,0,0,-0.0129,-0.0117,-0.0108,-0.009,-0.0083,-0.0046,-0.0074,-0.0089,-0.0078,-0.015,-0.0069,-0.0073,-0.0133,-0.015,-0.0168,-0.0168,-0.0169,-0.0169,-0.0169,-0.0098,-0.0088,-0.005,-0.0025,-0.0004,0.0016,0.0025,0.0004,-0.0024,0.0004,0.0019,0.0028,0.0022,0.004,0.0041,0.0041,0.0042,0.0042,0.0042,-0.0057,-0.0037,0.0002,0.0048,0.0093,0.0135,0.0133,0.0125,0.0083,0.0095,0.0032,-0.0026,0.0053,0.0051,0.0049,0.0048,0.0047,0.0046,0.0046,-0.0044,-0.0031,0.0015,0.009,0.0179,0.0223,0.021,0.0217,0.0155,0.0143,0.0026,0.0043,0.0021,0.0097,0.0096,0.0096,0.0096,0.0096,0.0095,-0.0056,-0.0011,0.0042,0.0135,0.0196,0.0253,0.0253,0.0179,0.0138,0.0101,0.0142,0.0043,0.0041,0.002,0.0091,0.0092,0.0092,0.0093,0.0093,-0.0067,-0.0038,0.0024,0.0085,0.0199,0.023,0.0229,0.0108,0.0006,-0.0065,0.0031,0.0035,-0.0046,-0.0048,-0.0075,-0.003,-0.003,-0.003,0,-0.0084,-0.0063,0.0006,0.0073,0.0132,0.0201,0.01,0.0026,-0.0039,-0.0007,-0.0036,0.0077,0.0079,-0.0008,-0.001,-0.004,0,0,0,-0.0094,-0.0075,-0.004,0.0034,0.011,0.0089,0.0072,0.0022,0.0034,-0.0092,-0.0035,-0.0034,0.0001,0.0078,-0.0041,-0.0043,-0.0086,0,0]},{"header":{"parameterUnit":"m.s-1","parameterCategory":2,"la1":30.2992,"la2":30.254,"lo1":-89.0895,"lo2":-89.0443,"dy":0.0025,"dx":0.0025,"nx":19,"ny":19,"refTime":"2026-03-08T03:00:00:Z","depth":"4","parameterNumber":3,"parameterNumberName":"V-component_of_CURRENTS"},"data":[0,0,0,0.0565,0.0565,0.0583,0.0583,0.0564,0.0564,0,0,0,0,0,0,0,0,0,0,0,0.0561,0.0562,0.0565,0.0565,0.0583,0.0583,0.0564,0.0564,0,0,0,0,0,0,0,0,0,0,0,0.0561,0.0561,0.0562,0.0565,0.0583,0.0583,0.0564,0.0561,0,0,0,0,0,0,0,0,0,0,0.0548,0.055,0.0561,0.0562,0.0565,0.0583,0.0583,0.0561,0.0561,0.0544,0,0.0553,0,0.0556,0.0562,0.0561,0,0,0,0.0563,0.055,0.0557,0.0562,0.0566,0.0583,0.0574,0.0561,0.0561,0.0544,0.0552,0.0552,0.0556,0.0561,0.0561,0.0525,0.0525,0,0,0.0562,0.056,0.0557,0.0557,0.0576,0.0574,0.0575,0.0561,0.0562,0.0552,0.0552,0.0556,0.0561,0.0561,0.0525,0.0525,0,0,0,0.0561,0.056,0.0567,0.0557,0.0563,0.0574,0.0576,0.0562,0.0566,0.0551,0.0555,0.0561,0.0561,0.0526,0.0525,0.0508,0,0,0,0.056,0.0559,0.0567,0.0565,0.0564,0.0568,0.0577,0.0567,0.0565,0.0555,0.0561,0.056,0.0526,0.0526,0.0509,0.0531,0,0,0,0.0559,0.0559,0.0563,0.0565,0.0574,0.0569,0.0571,0.0567,0.0567,0.0561,0.056,0.0526,0.0526,0.051,0.0531,0.0475,0,0,0,0.0553,0.0546,0.0563,0.0552,0.0574,0.0554,0.0572,0.0572,0.0568,0.0561,0.0526,0.0525,0.051,0.0532,0.0477,0.0472,0,0,0,0.0536,0.0544,0.0535,0.0551,0.0535,0.0552,0.0516,0.0533,0.0554,0.0527,0.0527,0.0509,0.0531,0.0476,0.045,0,0,0,0,0.0523,0.0528,0.0522,0.0523,0.0511,0.051,0.0513,0.0506,0.0516,0.055,0.0506,0.0521,0.0486,0.0487,0.0524,0.0524,0.0524,0.0524,0.0524,0.0518,0.0512,0.0506,0.0506,0.0487,0.0475,0.0454,0.0449,0.0475,0.0485,0.0503,0.0452,0.0452,0.0484,0.0484,0.0484,0.0484,0.0484,0.0484,0.0517,0.0518,0.051,0.0515,0.0499,0.0486,0.0426,0.0437,0.0413,0.0469,0.0433,0.0466,0.0482,0.0482,0.0483,0.0483,0.0483,0.0483,0.0483,0.0536,0.0532,0.0556,0.0555,0.0562,0.0538,0.0487,0.0469,0.043,0.0407,0.0408,0.0434,0.0437,0.0406,0.0406,0.0405,0.0405,0.0405,0.0405,0.0546,0.0557,0.0595,0.0604,0.0623,0.0616,0.0567,0.0473,0.0411,0.0408,0.0436,0.0425,0.0428,0.0432,0.0403,0.0403,0.0403,0.0404,0.0404,0.0531,0.0567,0.0613,0.0643,0.0663,0.0625,0.0589,0.0434,0.0342,0.0255,0.0363,0.0365,0.0368,0.0372,0.0374,0.0327,0.0327,0.0327,0,0.0527,0.0541,0.0624,0.0663,0.0635,0.0617,0.0484,0.0374,0.0291,0.0354,0.028,0.0409,0.0409,0.0418,0.042,0.0426,0,0,0,0.0499,0.054,0.0586,0.0654,0.063,0.05,0.0442,0.0411,0.0379,0.0214,0.0322,0.0323,0.0256,0.0395,0.0406,0.0409,0.0416,0,0]}]]